contact:dominique.lefevre@mio.osupytheas.fr, maurice.libes@osupytheas.fr, didier.mallarino@osupytheas.fr
Project:EMSO http://www.emso-fr.org/EMSO-France
Depth: 2436.0 m
Title:EMSO Ligure Ouest : Data MII capteur MICROCAT
DateTime_Computer,Latitude,Longitude,Temperature,Conductivity,Pressure,DateTime_Instrument
DateTime_Computer,Latitude,Longitude,degC,S m-1,dbar,DateTime_Instrument
2022-06-27T00:02:46Z,42.805,6.029,13.3008,4.60040,2470.637,2022-6-27T02:04:31Z
2022-06-27T00:05:49Z,42.805,6.029,13.3006,4.60038,2470.624,2022-6-27T02:07:34Z
2022-06-27T00:08:53Z,42.805,6.029,13.3006,4.60037,2470.624,2022-6-27T02:10:37Z
2022-06-27T00:11:56Z,42.805,6.029,13.3009,4.60037,2470.6,2022-6-27T02:13:40Z
2022-06-27T00:14:59Z,42.805,6.029,13.3009,4.60044,2470.637,2022-6-27T02:16:43Z
2022-06-27T00:18:02Z,42.805,6.029,13.3006,4.60038,2470.624,2022-6-27T02:19:46Z
2022-06-27T00:21:05Z,42.805,6.029,13.3015,4.60039,2470.6,2022-6-27T02:22:50Z
2022-06-27T00:24:08Z,42.805,6.029,13.3009,4.60036,2470.624,2022-6-27T02:25:53Z
2022-06-27T00:27:11Z,42.805,6.029,13.3005,4.60041,2470.6,2022-6-27T02:28:56Z
2022-06-27T00:30:14Z,42.805,6.029,13.3009,4.60044,2470.6,2022-6-27T02:31:59Z
2022-06-27T00:33:18Z,42.805,6.029,13.3006,4.60044,2470.6,2022-6-27T02:35:02Z
2022-06-27T00:36:21Z,42.805,6.029,13.3008,4.60045,2470.6,2022-6-27T02:38:05Z
2022-06-27T00:39:24Z,42.805,6.029,13.3003,4.60040,2470.614,2022-6-27T02:41:08Z
2022-06-27T00:42:27Z,42.805,6.029,13.3006,4.60038,2470.6,2022-6-27T02:44:11Z
2022-06-27T00:45:30Z,42.805,6.029,13.3009,4.60037,2470.577,2022-6-27T02:47:15Z
2022-06-27T00:48:33Z,42.805,6.029,13.3006,4.60045,2470.6,2022-6-27T02:50:18Z
2022-06-27T00:51:36Z,42.805,6.029,13.3004,4.60044,2470.6,2022-6-27T02:53:21Z
2022-06-27T00:54:39Z,42.805,6.029,13.3005,4.60039,2470.637,2022-6-27T02:56:24Z
2022-06-27T00:57:43Z,42.805,6.029,13.3011,4.60036,2470.577,2022-6-27T02:59:27Z
2022-06-27T01:00:46Z,42.805,6.029,13.3006,4.60040,2470.624,2022-6-27T03:02:30Z
2022-06-27T01:03:49Z,42.805,6.029,13.3009,4.60040,2470.586,2022-6-27T03:05:33Z
2022-06-27T01:06:52Z,42.805,6.029,13.3010,4.60050,2470.6,2022-6-27T03:08:36Z
2022-06-27T01:09:55Z,42.805,6.029,13.3006,4.60043,2470.624,2022-6-27T03:11:40Z
2022-06-27T01:12:58Z,42.805,6.029,13.3006,4.60043,2470.6,2022-6-27T03:14:43Z
2022-06-27T01:16:01Z,42.805,6.029,13.3011,4.60037,2470.6,2022-6-27T03:17:46Z
2022-06-27T01:19:04Z,42.805,6.029,13.3010,4.60039,2470.6,2022-6-27T03:20:49Z
2022-06-27T01:22:07Z,42.805,6.029,13.3009,4.60037,2470.591,2022-6-27T03:23:52Z
2022-06-27T01:25:11Z,42.805,6.029,13.3015,4.60039,2470.6,2022-6-27T03:26:55Z
2022-06-27T01:28:14Z,42.805,6.029,13.3011,4.60042,2470.624,2022-6-27T03:29:58Z
2022-06-27T01:31:17Z,42.805,6.029,13.3007,4.60040,2470.637,2022-6-27T03:33:01Z
2022-06-27T01:34:20Z,42.805,6.029,13.3008,4.60043,2470.577,2022-6-27T03:36:04Z
2022-06-27T01:37:23Z,42.805,6.029,13.3006,4.60041,2470.633,2022-6-27T03:39:08Z
2022-06-27T01:40:26Z,42.805,6.029,13.3010,4.60039,2470.6,2022-6-27T03:42:11Z
2022-06-27T01:43:29Z,42.805,6.029,13.3012,4.60043,2470.614,2022-6-27T03:45:14Z
2022-06-27T01:46:32Z,42.805,6.029,13.3008,4.60049,2470.614,2022-6-27T03:48:17Z
2022-06-27T01:49:36Z,42.805,6.029,13.3009,4.60039,2470.614,2022-6-27T03:51:20Z
2022-06-27T01:52:39Z,42.805,6.029,13.3011,4.60040,2470.614,2022-6-27T03:54:23Z
2022-06-27T01:55:42Z,42.805,6.029,13.3007,4.60040,2470.637,2022-6-27T03:57:26Z
2022-06-27T01:58:45Z,42.805,6.029,13.3011,4.60039,2470.6,2022-6-27T04:00:29Z
2022-06-27T02:01:48Z,42.805,6.029,13.3010,4.60045,2470.624,2022-6-27T04:03:33Z
2022-06-27T02:04:51Z,42.805,6.029,13.3006,4.60052,2470.577,2022-6-27T04:06:36Z
2022-06-27T02:07:54Z,42.805,6.029,13.3006,4.60047,2470.637,2022-6-27T04:09:39Z
2022-06-27T02:10:57Z,42.805,6.029,13.3006,4.60044,2470.637,2022-6-27T04:12:42Z
2022-06-27T02:14:00Z,42.805,6.029,13.3010,4.60050,2470.6,2022-6-27T04:15:45Z
2022-06-27T02:17:04Z,42.805,6.029,13.3014,4.60044,2470.577,2022-6-27T04:18:48Z
2022-06-27T02:20:07Z,42.805,6.029,13.3009,4.60055,2470.614,2022-6-27T04:21:51Z
2022-06-27T02:23:10Z,42.805,6.029,13.3007,4.60048,2470.6,2022-6-27T04:24:54Z
2022-06-27T02:26:13Z,42.805,6.029,13.3004,4.60042,2470.624,2022-6-27T04:27:58Z
2022-06-27T02:29:16Z,42.805,6.029,13.3011,4.60041,2470.637,2022-6-27T04:31:01Z
2022-06-27T02:32:19Z,42.805,6.029,13.3011,4.60042,2470.624,2022-6-27T04:34:04Z
2022-06-27T02:35:22Z,42.805,6.029,13.3008,4.60044,2470.646,2022-6-27T04:37:07Z
2022-06-27T02:38:25Z,42.805,6.029,13.3014,4.60055,2470.637,2022-6-27T04:40:10Z
2022-06-27T02:41:29Z,42.805,6.029,13.3009,4.60054,2470.637,2022-6-27T04:43:13Z
2022-06-27T02:44:32Z,42.805,6.029,13.3003,4.60049,2470.67,2022-6-27T04:46:16Z
2022-06-27T02:47:35Z,42.805,6.029,13.3006,4.60046,2470.624,2022-6-27T04:49:19Z
2022-06-27T02:50:38Z,42.805,6.029,13.3004,4.60046,2470.646,2022-6-27T04:52:22Z
2022-06-27T02:53:41Z,42.805,6.029,13.3009,4.60042,2470.661,2022-6-27T04:55:26Z
2022-06-27T02:56:44Z,42.805,6.029,13.3006,4.60044,2470.646,2022-6-27T04:58:29Z
2022-06-27T02:59:47Z,42.805,6.029,13.3013,4.60042,2470.624,2022-6-27T05:01:32Z
2022-06-27T03:02:50Z,42.805,6.029,13.3006,4.60046,2470.624,2022-6-27T05:04:35Z
2022-06-27T03:05:54Z,42.805,6.029,13.3006,4.60051,2470.637,2022-6-27T05:07:38Z
2022-06-27T03:08:57Z,42.805,6.029,13.3008,4.60050,2470.624,2022-6-27T05:10:41Z
2022-06-27T03:12:00Z,42.805,6.029,13.3003,4.60046,2470.661,2022-6-27T05:13:44Z
2022-06-27T03:15:03Z,42.805,6.029,13.3006,4.60062,2470.661,2022-6-27T05:16:47Z
2022-06-27T03:18:06Z,42.805,6.029,13.3005,4.60057,2470.624,2022-6-27T05:19:51Z
2022-06-27T03:21:09Z,42.805,6.029,13.3006,4.60067,2470.661,2022-6-27T05:22:54Z
2022-06-27T03:24:12Z,42.805,6.029,13.3004,4.60063,2470.637,2022-6-27T05:25:57Z
2022-06-27T03:27:15Z,42.805,6.029,13.3002,4.60064,2470.646,2022-6-27T05:29:00Z
2022-06-27T03:30:18Z,42.805,6.029,13.3008,4.60046,2470.646,2022-6-27T05:32:03Z
2022-06-27T03:33:22Z,42.805,6.029,13.3003,4.60046,2470.624,2022-6-27T05:35:06Z
2022-06-27T03:36:25Z,42.805,6.029,13.3002,4.60064,2470.646,2022-6-27T05:38:09Z
2022-06-27T03:39:28Z,42.805,6.029,13.3007,4.60054,2470.624,2022-6-27T05:41:12Z
2022-06-27T03:42:31Z,42.805,6.029,13.3004,4.60064,2470.661,2022-6-27T05:44:15Z
2022-06-27T03:45:34Z,42.805,6.029,13.3005,4.60069,2470.661,2022-6-27T05:47:19Z
2022-06-27T03:48:37Z,42.805,6.029,13.3006,4.60060,2470.67,2022-6-27T05:50:22Z
2022-06-27T03:51:40Z,42.805,6.029,13.3009,4.60058,2470.661,2022-6-27T05:53:25Z
2022-06-27T03:54:43Z,42.805,6.029,13.3005,4.60064,2470.684,2022-6-27T05:56:28Z
2022-06-27T03:57:47Z,42.805,6.029,13.3002,4.60068,2470.67,2022-6-27T05:59:31Z
2022-06-27T04:00:50Z,42.805,6.029,13.3005,4.60064,2470.624,2022-6-27T06:02:34Z
2022-06-27T04:03:53Z,42.805,6.029,13.3006,4.60059,2470.67,2022-6-27T06:05:37Z
2022-06-27T04:06:56Z,42.805,6.029,13.3009,4.60059,2470.656,2022-6-27T06:08:40Z
2022-06-27T04:09:59Z,42.805,6.029,13.3005,4.60058,2470.646,2022-6-27T06:11:44Z
2022-06-27T04:13:02Z,42.805,6.029,13.3007,4.60062,2470.693,2022-6-27T06:14:47Z
2022-06-27T04:16:05Z,42.805,6.029,13.3005,4.60059,2470.67,2022-6-27T06:17:50Z
2022-06-27T04:19:08Z,42.805,6.029,13.3002,4.60057,2470.67,2022-6-27T06:20:53Z
2022-06-27T04:22:12Z,42.805,6.029,13.3004,4.60060,2470.693,2022-6-27T06:23:56Z
2022-06-27T04:25:15Z,42.805,6.029,13.3006,4.60055,2470.661,2022-6-27T06:26:59Z
2022-06-27T04:28:18Z,42.805,6.029,13.3005,4.60057,2470.684,2022-6-27T06:30:02Z
2022-06-27T04:31:21Z,42.805,6.029,13.3005,4.60055,2470.707,2022-6-27T06:33:05Z
2022-06-27T04:34:24Z,42.805,6.029,13.3008,4.60052,2470.693,2022-6-27T06:36:09Z
2022-06-27T04:37:27Z,42.805,6.029,13.3004,4.60052,2470.693,2022-6-27T06:39:12Z
2022-06-27T04:40:30Z,42.805,6.029,13.3005,4.60050,2470.684,2022-6-27T06:42:15Z
2022-06-27T04:43:33Z,42.805,6.029,13.3008,4.60049,2470.684,2022-6-27T06:45:18Z
2022-06-27T05:08:08Z,42.805,6.029,13.3004,4.60053,2470.73,2022-6-27T07:09:53Z
2022-06-27T05:11:12Z,42.805,6.029,13.3006,4.60046,2470.707,2022-6-27T07:12:56Z
2022-06-27T05:14:15Z,42.805,6.029,13.3006,4.60051,2470.67,2022-6-27T07:15:59Z
2022-06-27T05:17:18Z,42.805,6.029,13.3005,4.60046,2470.717,2022-6-27T07:19:02Z
2022-06-27T05:20:21Z,42.805,6.029,13.3006,4.60049,2470.73,2022-6-27T07:22:05Z
2022-06-27T05:23:24Z,42.805,6.029,13.3007,4.60045,2470.707,2022-6-27T07:25:09Z
2022-06-27T05:26:27Z,42.805,6.029,13.3003,4.60047,2470.693,2022-6-27T07:28:12Z
2022-06-27T05:29:30Z,42.805,6.029,13.3011,4.60050,2470.73,2022-6-27T07:31:15Z
2022-06-27T05:32:33Z,42.805,6.029,13.3002,4.60045,2470.693,2022-6-27T07:34:18Z
2022-06-27T05:35:37Z,42.805,6.029,13.3002,4.60045,2470.693,2022-6-27T07:37:21Z
2022-06-27T05:38:40Z,42.805,6.029,13.3001,4.60046,2470.717,2022-6-27T07:40:24Z
2022-06-27T05:41:43Z,42.805,6.029,13.3004,4.60046,2470.73,2022-6-27T07:43:27Z
2022-06-27T05:44:46Z,42.805,6.029,13.3005,4.60046,2470.717,2022-6-27T07:46:30Z
2022-06-27T05:47:49Z,42.805,6.029,13.3006,4.60046,2470.717,2022-6-27T07:49:34Z
2022-06-27T05:50:52Z,42.805,6.029,13.3005,4.60052,2470.73,2022-6-27T07:52:37Z
2022-06-27T05:53:55Z,42.805,6.029,13.3006,4.60050,2470.693,2022-6-27T07:55:40Z
2022-06-27T05:56:58Z,42.805,6.029,13.3004,4.60045,2470.707,2022-6-27T07:58:43Z
2022-06-27T06:00:02Z,42.805,6.029,13.3009,4.60044,2470.693,2022-6-27T08:01:46Z
2022-06-27T06:03:05Z,42.805,6.029,13.3009,4.60045,2470.74,2022-6-27T08:04:49Z
2022-06-27T06:06:08Z,42.805,6.029,13.3004,4.60047,2470.693,2022-6-27T08:07:52Z
2022-06-27T06:09:11Z,42.805,6.029,13.3004,4.60046,2470.693,2022-6-27T08:10:55Z
2022-06-27T06:12:14Z,42.805,6.029,13.3007,4.60047,2470.707,2022-6-27T08:13:59Z
2022-06-27T06:15:17Z,42.805,6.029,13.3007,4.60047,2470.717,2022-6-27T08:17:02Z
2022-06-27T06:18:20Z,42.805,6.029,13.3006,4.60045,2470.693,2022-6-27T08:20:05Z
2022-06-27T06:21:23Z,42.805,6.029,13.3003,4.60049,2470.693,2022-6-27T08:23:08Z
2022-06-27T06:24:26Z,42.805,6.029,13.3009,4.60050,2470.693,2022-6-27T08:26:11Z
2022-06-27T06:27:30Z,42.805,6.029,13.3006,4.60049,2470.693,2022-6-27T08:29:14Z
2022-06-27T06:30:33Z,42.805,6.029,13.3006,4.60047,2470.73,2022-6-27T08:32:17Z
2022-06-27T06:33:36Z,42.805,6.029,13.3011,4.60053,2470.754,2022-6-27T08:35:20Z
2022-06-27T06:36:39Z,42.805,6.029,13.3003,4.60052,2470.67,2022-6-27T08:38:24Z
2022-06-27T06:39:42Z,42.805,6.029,13.3007,4.60049,2470.693,2022-6-27T08:41:27Z
2022-06-27T06:42:45Z,42.805,6.029,13.3007,4.60044,2470.73,2022-6-27T08:44:30Z
2022-06-27T06:45:48Z,42.805,6.029,13.3006,4.60044,2470.717,2022-6-27T08:47:33Z
2022-06-27T06:48:51Z,42.805,6.029,13.3004,4.60042,2470.73,2022-6-27T08:50:36Z
2022-06-27T06:51:55Z,42.805,6.029,13.3005,4.60047,2470.693,2022-6-27T08:53:39Z
2022-06-27T06:54:58Z,42.805,6.029,13.3006,4.60045,2470.693,2022-6-27T08:56:42Z
2022-06-27T06:58:01Z,42.805,6.029,13.3008,4.60044,2470.693,2022-6-27T08:59:45Z
2022-06-27T07:01:04Z,42.805,6.029,13.3009,4.60046,2470.693,2022-6-27T09:02:48Z
2022-06-27T07:04:07Z,42.805,6.029,13.3004,4.60044,2470.693,2022-6-27T09:05:52Z
2022-06-27T07:07:10Z,42.805,6.029,13.3004,4.60044,2470.693,2022-6-27T09:08:55Z
2022-06-27T07:10:13Z,42.805,6.029,13.3003,4.60049,2470.707,2022-6-27T09:11:58Z
2022-06-27T07:13:16Z,42.805,6.029,13.3006,4.60042,2470.67,2022-6-27T09:15:01Z
2022-06-27T07:16:19Z,42.805,6.029,13.3004,4.60042,2470.693,2022-6-27T09:18:04Z
2022-06-27T07:19:23Z,42.805,6.029,13.3000,4.60041,2470.693,2022-6-27T09:21:07Z
2022-06-27T07:22:26Z,42.805,6.029,13.3006,4.60046,2470.684,2022-6-27T09:24:10Z
2022-06-27T07:25:29Z,42.805,6.029,13.3009,4.60046,2470.707,2022-6-27T09:27:13Z
2022-06-27T07:28:32Z,42.805,6.029,13.3004,4.60049,2470.67,2022-6-27T09:30:17Z
2022-06-27T07:31:35Z,42.805,6.029,13.3003,4.60046,2470.67,2022-6-27T09:33:20Z
2022-06-27T07:34:38Z,42.805,6.029,13.3006,4.60046,2470.693,2022-6-27T09:36:23Z
2022-06-27T07:37:41Z,42.805,6.029,13.3004,4.60045,2470.693,2022-6-27T09:39:26Z
2022-06-27T07:40:44Z,42.805,6.029,13.3006,4.60046,2470.67,2022-6-27T09:42:29Z
2022-06-27T07:43:48Z,42.805,6.029,13.3005,4.60045,2470.67,2022-6-27T09:45:32Z
2022-06-27T07:46:51Z,42.805,6.029,13.3004,4.60052,2470.67,2022-6-27T09:48:35Z
2022-06-27T07:49:54Z,42.805,6.029,13.3000,4.60041,2470.646,2022-6-27T09:51:38Z
2022-06-27T07:52:57Z,42.805,6.029,13.3003,4.60049,2470.67,2022-6-27T09:54:42Z
2022-06-27T07:56:00Z,42.805,6.029,13.3004,4.60050,2470.67,2022-6-27T09:57:45Z
2022-06-27T07:59:03Z,42.805,6.029,13.3004,4.60044,2470.646,2022-6-27T10:00:48Z
2022-06-27T08:02:06Z,42.805,6.029,13.3006,4.60039,2470.646,2022-6-27T10:03:51Z
2022-06-27T08:05:09Z,42.805,6.029,13.3004,4.60050,2470.67,2022-6-27T10:06:54Z
2022-06-27T08:08:13Z,42.805,6.029,13.3004,4.60039,2470.684,2022-6-27T10:09:57Z
2022-06-27T08:11:16Z,42.805,6.029,13.3006,4.60049,2470.646,2022-6-27T10:13:00Z
2022-06-27T08:14:19Z,42.805,6.029,13.3005,4.60042,2470.67,2022-6-27T10:16:03Z
2022-06-27T08:17:22Z,42.805,6.029,13.3006,4.60041,2470.646,2022-6-27T10:19:07Z
2022-06-27T08:20:25Z,42.805,6.029,13.3010,4.60045,2470.693,2022-6-27T10:22:10Z
2022-06-27T08:23:28Z,42.805,6.029,13.3005,4.60041,2470.637,2022-6-27T10:25:13Z
2022-06-27T08:26:31Z,42.805,6.029,13.3005,4.60044,2470.624,2022-6-27T10:28:16Z
2022-06-27T08:29:34Z,42.805,6.029,13.3007,4.60043,2470.6,2022-6-27T10:31:19Z
2022-06-27T08:32:38Z,42.805,6.029,13.3008,4.60042,2470.661,2022-6-27T10:34:22Z
2022-06-27T08:35:41Z,42.805,6.029,13.3005,4.60040,2470.624,2022-6-27T10:37:25Z
2022-06-27T08:38:44Z,42.805,6.029,13.3006,4.60042,2470.624,2022-6-27T10:40:28Z
2022-06-27T08:41:47Z,42.805,6.029,13.3008,4.60043,2470.646,2022-6-27T10:43:32Z
2022-06-27T08:44:50Z,42.805,6.029,13.3006,4.60042,2470.646,2022-6-27T10:46:35Z
2022-06-27T08:47:53Z,42.805,6.029,13.3005,4.60042,2470.646,2022-6-27T10:49:38Z
2022-06-27T08:50:56Z,42.805,6.029,13.3004,4.60039,2470.646,2022-6-27T10:52:41Z
2022-06-27T08:53:59Z,42.805,6.029,13.3006,4.60044,2470.661,2022-6-27T10:55:44Z
2022-06-27T08:57:03Z,42.805,6.029,13.3006,4.60044,2470.6,2022-6-27T10:58:47Z
2022-06-27T09:00:06Z,42.805,6.029,13.3000,4.60039,2470.624,2022-6-27T11:01:50Z
2022-06-27T09:03:09Z,42.805,6.029,13.3005,4.60037,2470.6,2022-6-27T11:04:53Z
2022-06-27T09:06:12Z,42.805,6.029,13.3007,4.60039,2470.633,2022-6-27T11:07:57Z
2022-06-27T09:09:15Z,42.805,6.029,13.3005,4.60042,2470.637,2022-6-27T11:11:00Z
2022-06-27T09:12:18Z,42.805,6.029,13.3006,4.60040,2470.624,2022-6-27T11:14:03Z
2022-06-27T09:15:21Z,42.805,6.029,13.3007,4.60039,2470.661,2022-6-27T11:17:06Z
2022-06-27T09:18:24Z,42.805,6.029,13.3003,4.60042,2470.624,2022-6-27T11:20:09Z
2022-06-27T09:21:28Z,42.805,6.029,13.3001,4.60040,2470.661,2022-6-27T11:23:12Z
2022-06-27T09:24:31Z,42.805,6.029,13.3001,4.60045,2470.637,2022-6-27T11:26:15Z
2022-06-27T09:27:34Z,42.805,6.029,13.3009,4.60041,2470.624,2022-6-27T11:29:18Z
2022-06-27T09:30:37Z,42.805,6.029,13.3006,4.60039,2470.6,2022-6-27T11:32:22Z
2022-06-27T09:33:40Z,42.805,6.029,13.3004,4.60042,2470.577,2022-6-27T11:35:25Z
2022-06-27T09:36:43Z,42.805,6.029,13.3004,4.60038,2470.637,2022-6-27T11:38:28Z
2022-06-27T09:39:46Z,42.805,6.029,13.3004,4.60039,2470.646,2022-6-27T11:41:31Z
2022-06-27T09:42:50Z,42.805,6.029,13.3004,4.60041,2470.6,2022-6-27T11:44:34Z
2022-06-27T09:45:53Z,42.805,6.029,13.3006,4.60044,2470.624,2022-6-27T11:47:37Z
2022-06-27T09:48:56Z,42.805,6.029,13.3003,4.60039,2470.624,2022-6-27T11:50:40Z
2022-06-27T09:51:59Z,42.805,6.029,13.3006,4.60042,2470.661,2022-6-27T11:53:43Z
2022-06-27T09:55:02Z,42.805,6.029,13.3006,4.60046,2470.637,2022-6-27T11:56:47Z
2022-06-27T09:58:05Z,42.805,6.029,13.3004,4.60040,2470.591,2022-6-27T11:59:50Z
2022-06-27T10:01:08Z,42.805,6.029,13.3005,4.60039,2470.614,2022-6-27T12:02:53Z
2022-06-27T10:04:11Z,42.805,6.029,13.3006,4.60045,2470.6,2022-6-27T12:05:56Z
2022-06-27T10:07:15Z,42.805,6.029,13.3003,4.60038,2470.6,2022-6-27T12:08:59Z
2022-06-27T10:10:18Z,42.805,6.029,13.3006,4.60039,2470.6,2022-6-27T12:12:02Z
2022-06-27T10:13:21Z,42.805,6.029,13.3007,4.60039,2470.614,2022-6-27T12:15:05Z
2022-06-27T10:16:24Z,42.805,6.029,13.3006,4.60043,2470.6,2022-6-27T12:18:08Z
2022-06-27T10:19:27Z,42.805,6.029,13.3007,4.60041,2470.614,2022-6-27T12:21:12Z
2022-06-27T10:22:30Z,42.805,6.029,13.3006,4.60038,2470.6,2022-6-27T12:24:15Z
2022-06-27T10:25:33Z,42.805,6.029,13.3006,4.60039,2470.591,2022-6-27T12:27:18Z
2022-06-27T10:28:36Z,42.805,6.029,13.3005,4.60041,2470.614,2022-6-27T12:30:21Z
2022-06-27T10:31:40Z,42.805,6.029,13.3006,4.60041,2470.6,2022-6-27T12:33:24Z
2022-06-27T10:34:43Z,42.805,6.029,13.3011,4.60038,2470.553,2022-6-27T12:36:27Z
2022-06-27T10:37:46Z,42.805,6.029,13.3006,4.60044,2470.591,2022-6-27T12:39:30Z
2022-06-27T10:40:49Z,42.805,6.029,13.3011,4.60040,2470.577,2022-6-27T12:42:34Z
2022-06-27T10:43:52Z,42.805,6.029,13.3005,4.60045,2470.577,2022-6-27T12:45:37Z
2022-06-27T10:46:55Z,42.805,6.029,13.3009,4.60040,2470.604,2022-6-27T12:48:40Z
2022-06-27T10:49:58Z,42.805,6.029,13.3008,4.60038,2470.577,2022-6-27T12:51:43Z
2022-06-27T10:53:01Z,42.805,6.029,13.3009,4.60038,2470.577,2022-6-27T12:54:46Z
2022-06-27T10:56:05Z,42.805,6.029,13.3005,4.60046,2470.577,2022-6-27T12:57:49Z
2022-06-27T10:59:08Z,42.805,6.029,13.3007,4.60042,2470.591,2022-6-27T13:00:52Z
2022-06-27T11:02:11Z,42.805,6.029,13.3009,4.60039,2470.544,2022-6-27T13:03:55Z
2022-06-27T11:05:14Z,42.805,6.029,13.3012,4.60044,2470.577,2022-6-27T13:06:58Z
2022-06-27T11:08:17Z,42.805,6.029,13.3014,4.60038,2470.553,2022-6-27T13:10:02Z
2022-06-27T11:11:20Z,42.805,6.029,13.3008,4.60039,2470.553,2022-6-27T13:13:05Z
2022-06-27T11:14:23Z,42.805,6.029,13.3006,4.60046,2470.553,2022-6-27T13:16:08Z
2022-06-27T11:17:26Z,42.805,6.029,13.3006,4.60038,2470.567,2022-6-27T13:19:11Z
2022-06-27T11:20:30Z,42.805,6.029,13.3006,4.60042,2470.591,2022-6-27T13:22:14Z
2022-06-27T11:23:33Z,42.805,6.029,13.3011,4.60037,2470.553,2022-6-27T13:25:17Z
2022-06-27T11:26:36Z,42.805,6.029,13.3006,4.60039,2470.53,2022-6-27T13:28:20Z
2022-06-27T11:29:39Z,42.805,6.029,13.3004,4.60039,2470.553,2022-6-27T13:31:24Z
2022-06-27T11:32:42Z,42.805,6.029,13.3012,4.60039,2470.577,2022-6-27T13:34:27Z
2022-06-27T11:35:45Z,42.805,6.029,13.3007,4.60045,2470.553,2022-6-27T13:37:30Z
2022-06-27T11:38:48Z,42.805,6.029,13.3009,4.60048,2470.577,2022-6-27T13:40:33Z
2022-06-27T11:41:51Z,42.805,6.029,13.3008,4.60037,2470.553,2022-6-27T13:43:36Z
2022-06-27T11:44:55Z,42.805,6.029,13.3013,4.60039,2470.553,2022-6-27T13:46:39Z
2022-06-27T11:47:58Z,42.805,6.029,13.3011,4.60041,2470.581,2022-6-27T13:49:42Z
2022-06-27T11:51:01Z,42.805,6.029,13.3015,4.60042,2470.567,2022-6-27T13:52:45Z
2022-06-27T11:54:04Z,42.805,6.029,13.3010,4.60039,2470.577,2022-6-27T13:55:49Z
2022-06-27T11:57:07Z,42.805,6.029,13.3011,4.60039,2470.553,2022-6-27T13:58:52Z
2022-06-27T12:00:10Z,42.805,6.029,13.3008,4.60037,2470.553,2022-6-27T14:01:55Z
2022-06-27T12:03:13Z,42.805,6.029,13.3011,4.60042,2470.553,2022-6-27T14:04:58Z
2022-06-27T12:06:16Z,42.805,6.029,13.3007,4.60042,2470.6,2022-6-27T14:08:01Z
2022-06-27T12:09:20Z,42.805,6.029,13.3005,4.60039,2470.591,2022-6-27T14:11:04Z
2022-06-27T12:12:23Z,42.805,6.029,13.3007,4.60044,2470.553,2022-6-27T14:14:07Z
2022-06-27T12:15:26Z,42.805,6.029,13.3010,4.60042,2470.567,2022-6-27T14:17:10Z
2022-06-27T12:18:29Z,42.805,6.029,13.3007,4.60041,2470.553,2022-6-27T14:20:14Z
2022-06-27T12:21:32Z,42.805,6.029,13.3006,4.60046,2470.553,2022-6-27T14:23:17Z
2022-06-27T12:24:35Z,42.805,6.029,13.3009,4.60039,2470.567,2022-6-27T14:26:20Z
2022-06-27T12:27:38Z,42.805,6.029,13.3007,4.60046,2470.553,2022-6-27T14:29:23Z
2022-06-27T12:30:41Z,42.805,6.029,13.3006,4.60038,2470.567,2022-6-27T14:32:26Z
2022-06-27T12:33:45Z,42.805,6.029,13.3008,4.60037,2470.577,2022-6-27T14:35:29Z
2022-06-27T12:36:48Z,42.805,6.029,13.3010,4.60038,2470.553,2022-6-27T14:38:32Z
2022-06-27T12:39:51Z,42.805,6.029,13.3006,4.60046,2470.553,2022-6-27T14:41:35Z
2022-06-27T12:42:54Z,42.805,6.029,13.3007,4.60044,2470.577,2022-6-27T14:44:39Z
2022-06-27T12:45:57Z,42.805,6.029,13.3008,4.60039,2470.567,2022-6-27T14:47:42Z
2022-06-27T12:49:00Z,42.805,6.029,13.3007,4.60037,2470.567,2022-6-27T14:50:45Z
2022-06-27T12:52:03Z,42.805,6.029,13.3007,4.60039,2470.553,2022-6-27T14:53:48Z
2022-06-27T12:55:06Z,42.805,6.029,13.3007,4.60043,2470.553,2022-6-27T14:56:51Z
2022-06-27T12:58:10Z,42.805,6.029,13.3004,4.60039,2470.553,2022-6-27T14:59:54Z
2022-06-27T13:01:13Z,42.805,6.029,13.3006,4.60038,2470.53,2022-6-27T15:02:57Z
2022-06-27T13:04:16Z,42.805,6.029,13.3008,4.60036,2470.567,2022-6-27T15:06:00Z
2022-06-27T13:07:19Z,42.805,6.029,13.3013,4.60038,2470.553,2022-6-27T15:09:04Z
2022-06-27T13:10:22Z,42.805,6.029,13.3009,4.60038,2470.591,2022-6-27T15:12:07Z
2022-06-27T13:13:25Z,42.805,6.029,13.3008,4.60045,2470.553,2022-6-27T15:15:10Z
2022-06-27T13:16:28Z,42.805,6.029,13.3011,4.60039,2470.553,2022-6-27T15:18:13Z
2022-06-27T13:19:31Z,42.805,6.029,13.3006,4.60042,2470.53,2022-6-27T15:21:16Z
2022-06-27T13:22:35Z,42.805,6.029,13.3009,4.60045,2470.553,2022-6-27T15:24:19Z
2022-06-27T13:25:38Z,42.805,6.029,13.3006,4.60041,2470.553,2022-6-27T15:27:22Z
2022-06-27T13:28:41Z,42.805,6.029,13.3010,4.60040,2470.577,2022-6-27T15:30:25Z
2022-06-27T13:31:44Z,42.805,6.029,13.3007,4.60039,2470.53,2022-6-27T15:33:29Z
2022-06-27T13:34:47Z,42.805,6.029,13.3009,4.60042,2470.553,2022-6-27T15:36:32Z
2022-06-27T13:37:50Z,42.805,6.029,13.3010,4.60049,2470.577,2022-6-27T15:39:35Z
2022-06-27T13:40:53Z,42.805,6.029,13.3009,4.60037,2470.553,2022-6-27T15:42:38Z
2022-06-27T13:43:57Z,42.805,6.029,13.3009,4.60039,2470.6,2022-6-27T15:45:41Z
2022-06-27T13:47:00Z,42.805,6.029,13.3009,4.60046,2470.553,2022-6-27T15:48:44Z
2022-06-27T13:50:03Z,42.805,6.029,13.3011,4.60039,2470.553,2022-6-27T15:51:47Z
2022-06-27T13:53:06Z,42.805,6.029,13.3010,4.60039,2470.577,2022-6-27T15:54:51Z
2022-06-27T13:56:09Z,42.805,6.029,13.3010,4.60050,2470.553,2022-6-27T15:57:54Z
2022-06-27T13:59:12Z,42.805,6.029,13.3010,4.60044,2470.553,2022-6-27T16:00:57Z
2022-06-27T14:02:15Z,42.805,6.029,13.3009,4.60046,2470.53,2022-6-27T16:04:00Z
2022-06-27T14:05:18Z,42.805,6.029,13.3004,4.60060,2470.591,2022-6-27T16:07:03Z
2022-06-27T14:08:22Z,42.805,6.029,13.3007,4.60042,2470.553,2022-6-27T16:10:06Z
2022-06-27T14:11:25Z,42.805,6.029,13.3006,4.60042,2470.577,2022-6-27T16:13:09Z
2022-06-27T14:14:28Z,42.805,6.029,13.3006,4.60060,2470.624,2022-6-27T16:16:12Z
2022-06-27T14:17:31Z,42.805,6.029,13.3006,4.60042,2470.577,2022-6-27T16:19:15Z
2022-06-27T14:20:34Z,42.805,6.029,13.3007,4.60044,2470.553,2022-6-27T16:22:19Z
2022-06-27T14:23:37Z,42.805,6.029,13.3006,4.60042,2470.591,2022-6-27T16:25:22Z
2022-06-27T14:26:40Z,42.805,6.029,13.3007,4.60048,2470.553,2022-6-27T16:28:25Z
2022-06-27T14:29:43Z,42.805,6.029,13.3010,4.60059,2470.553,2022-6-27T16:31:28Z
2022-06-27T14:32:47Z,42.805,6.029,13.3007,4.60044,2470.6,2022-6-27T16:34:31Z
2022-06-27T14:35:50Z,42.805,6.029,13.3006,4.60041,2470.577,2022-6-27T16:37:34Z
2022-06-27T14:38:53Z,42.805,6.029,13.3007,4.60040,2470.6,2022-6-27T16:40:37Z
2022-06-27T14:41:56Z,42.805,6.029,13.3011,4.60038,2470.563,2022-6-27T16:43:41Z
2022-06-27T14:44:59Z,42.805,6.029,13.3009,4.60040,2470.614,2022-6-27T16:46:44Z
2022-06-27T14:48:02Z,42.805,6.029,13.3007,4.60042,2470.6,2022-6-27T16:49:47Z
2022-06-27T14:51:05Z,42.805,6.029,13.3009,4.60041,2470.591,2022-6-27T16:52:50Z
2022-06-27T14:54:08Z,42.805,6.029,13.3004,4.60047,2470.624,2022-6-27T16:55:53Z
2022-06-27T14:57:12Z,42.805,6.029,13.3009,4.60047,2470.6,2022-6-27T16:58:56Z
2022-06-27T15:00:15Z,42.805,6.029,13.3011,4.60042,2470.661,2022-6-27T17:01:59Z
2022-06-27T15:03:18Z,42.805,6.029,13.3005,4.60051,2470.614,2022-6-27T17:05:02Z
2022-06-27T15:06:21Z,42.805,6.029,13.3010,4.60049,2470.6,2022-6-27T17:08:05Z
2022-06-27T15:09:24Z,42.805,6.029,13.3005,4.60049,2470.624,2022-6-27T17:11:09Z
2022-06-27T15:12:27Z,42.805,6.029,13.3005,4.60046,2470.624,2022-6-27T17:14:12Z
2022-06-27T15:15:30Z,42.805,6.029,13.3009,4.60049,2470.624,2022-6-27T17:17:15Z
2022-06-27T15:18:33Z,42.805,6.029,13.3005,4.60042,2470.624,2022-6-27T17:20:18Z
2022-06-27T15:21:37Z,42.805,6.029,13.3006,4.60040,2470.637,2022-6-27T17:23:21Z
2022-06-27T15:24:40Z,42.805,6.029,13.3007,4.60040,2470.637,2022-6-27T17:26:24Z
2022-06-27T15:27:43Z,42.805,6.029,13.3009,4.60040,2470.637,2022-6-27T17:29:27Z
2022-06-27T15:30:46Z,42.805,6.029,13.3009,4.60043,2470.661,2022-6-27T17:32:31Z
2022-06-27T15:33:49Z,42.805,6.029,13.3004,4.60045,2470.624,2022-6-27T17:35:34Z
2022-06-27T15:36:52Z,42.805,6.029,13.3008,4.60042,2470.661,2022-6-27T17:38:37Z